Location: Csohesd
(46.2500°N, 22.6167°E)
Time: 04:37:26
(UTC+00:00)

Cosmos 1892 - Pass Details

Date: 21 October 2021
Orbit: 501 x 522 km, 82.5° (Epoch: 30 November)

Event Time Altitude Azimuth Distance (km) Brightness Sun altitude
Rises 17:59:00 0° 346° (NNW) 2,620 6.6 -25.9°
Reaches altitude 10° 18:01:11 10° 341° (NNW) 1,727 5.7 -26.3°
Enters shadow 18:03:33 34° 320° (NW) 858 4.1 -26.7°
